Location: Asheville, NC
(35.6000°N, 82.5500°W)
Time: 22:59:03

RS-15 - Pass Details

Date: 17 March 2018
Orbit: 1887 x 2157 km, 64.8° (Epoch: 18 March)

Event Time Altitude Azimuth Distance (km) Brightness Sun altitude
Rises 06:47:22 0° 328° (NNW) 5,578 10.2 -11.1°
Reaches altitude 10° 06:52:10 10° 343° (NNW) 4,530 9.8 -10.2°
Maximum altitude 07:00:46 23° 31° (NNE) 3,523 9.8 -8.4°
Drops below altitude 10° 07:09:01 10° 79° (E) 4,361 11.6 -6.7°
Sets 07:13:27 0° 94° (E) 5,321 12.8 -5.8°
